星链-35831(STARLINK-35831)

导读

STARLINK-35805是美国SpaceX星链星座的组网卫星,于北京时间2025年11月6日发射升空,归入星链低轨互联网星座部署序列。它延续星链卫星设计,承担全球范围高速互联网接入服务的组网补网任务,进一步完善美国低轨卫星通信网络的覆盖密度与服务稳定性。

Basic Information
目录编号:
66359
目录名称:
STARLINK-35805
国际标识:
2025-254M
轨道中心:
EARTH
卫星名称:
星链-35831
卫星全名:
星链-35831(STARLINK-35831)
卫星状态:
在轨 (已飞行219 天)
发射日期:
2025-11-06 UTC
国别 :
美国 (US)
星等 :
--
Orbit Information
数据来源 国际轨道数据 AOE轨道数据
星历时间 2026-06-12T14:09:57+0800
1天前
查看轨道信息
2026-06-10T03:00:00+0800
3天前
查看轨道信息
半长轴 6848.841km 6848.877km
偏心率 0.000112 0.0001327
轨道倾角 53.157° 53.156°
近地点辐角 101.606° 77.150°
升交点赤经 152.540° 164.001°
平近点角 258.507° 1.690°
近地点 469.936km 469.831km
远地点 471.472km 471.649km
周期 94.012分钟 94.013分钟
每日圈数 15.317122 15.317003
Detailed Information
固有亮度:
5
最大亮度:
2.5
卫星平台:
Starlink V1.0
覆盖范围:
全球
运营商:
太空探索技术公司
运营商所在国:
美国
制造商(研发单位):
太空探索技术公司
制造商所在国:
美国
使用方式:
暂无
Satellite Introduction
Starlink 计划是 SpaceX 推出的全球卫星互联网项目,通过发射低轨道卫星,为全球尤其是偏远地区提供高速、低延迟的互联网服务。自 2019 年起,Starlink 已部署数千颗卫星,旨在缩小全球数字鸿沟,推动互联网普及。该项目还为军事、航空等行业提供通信支持,带来广泛经济效益。
2D Orbit Map
3D Orbit Map
Orbit Altitude Analysis Chart
Orbit Inclination Analysis Chart
Orbit Comprehensive Analysis Chart
View Comprehensive Chart